Savannah Hunter, GA

10:00 AM EST on December 18, 2017 (GMT -0500)
Hunter Army Air Field

Weather History for KSVN - July, 2013

Change the Weather History Date:

Friday, July 5, 2013

  Actual Average Record
Temperature  
Mean Temperature 82 °F -  
Max Temperature 87 °F 89 °F 97 °F (2017)
Min Temperature 78 °F 71 °F 68 °F (2007)
Cooling Degree Days 17    
Growing Degree Days 32 (Base 50)    
Moisture  
Dew Point 76 °F    
Average Humidity 82    
Maximum Humidity 95    
Minimum Humidity 66    
Precipitation  
Precipitation 0.01 in - - ()
Sea Level Pressure  
Sea Level Pressure 30.17 in    
Wind  
Wind Speed 7 mph (SE)    
Max Wind Speed 18 mph    
Max Gust Speed 28 mph    
Visibility 10 miles    
Events Rain , Thunderstorm    
Averages and records for this station are not official NWS values.
T = Trace of Precipitation, MM = Missing Value Source: NWS Daily Summary

Daily Weather History Graph

Daily Weather History Graph

Search for Another Location

Airport or City:

Trip Planner

Search our weather history database for the weather conditions in past years. The results will help you decide how hot, cold, wet, or windy it might be!

Date:

Astronomy

Jul. 05, 2013 Rise Set
Actual Time 6:24 AM EDT 8:34 PM EDT
Civil Twilight 5:55 AM EDT 9:02 PM EDT
Nautical Twilight 5:21 AM EDT 9:36 PM EDT
Astronomical Twilight 4:44 AM EDT 10:13 PM EDT
Moon 4:18 AM EDT (7/5) 6:31 PM EDT (7/5)
Length of Visible Light 15h 06m
Length of Day
14h 10m
Waning Crescent, 6% of the Moon is Illuminated
Jul 5
Waning Crescent
Jul 8
New
Jul 15
First Quarter
Jul 22
Full
Jul 29
Last Quarter

Hourly Weather History & Observations

Time (EDT) Temp. Heat Index Dew Point Humidity Pressure Visibility Wind Dir Wind Speed Gust Speed Precip Events Conditions
12:47 AM 80.6 °F 86.2 °F 75.2 °F 84% 30.17 in 10.0 mi SSE 8.1 mph - N/A   Mostly Cloudy
12:50 AM 80.6 °F 86.2 °F 75.2 °F 84% 30.17 in 10.0 mi SSE 8.1 mph - N/A   Mostly Cloudy
12:55 AM 80.6 °F 86.2 °F 75.2 °F 84% 30.17 in 10.0 mi SE 5.8 mph - N/A   Mostly Cloudy
1:58 AM 79.0 °F - 75.9 °F 90% 30.17 in 10.0 mi SSE 5.8 mph - N/A   Partly Cloudy
2:28 AM 78.8 °F - 75.2 °F 89% 30.16 in 10.0 mi South 3.5 mph - N/A   Mostly Cloudy
2:33 AM 78.8 °F - 75.2 °F 89% 30.16 in 10.0 mi South 4.6 mph - N/A   Mostly Cloudy
2:38 AM 78.8 °F - 77.0 °F 94% 30.16 in 10.0 mi South 4.6 mph - N/A   Mostly Cloudy
2:53 AM 78.8 °F - 77.0 °F 94% 30.16 in 10.0 mi South 5.8 mph - N/A   Mostly Cloudy
2:58 AM 79.3 °F - 76.3 °F 90% 30.16 in 10.0 mi SSE 6.9 mph - N/A   Mostly Cloudy
3:03 AM 78.8 °F - 77.0 °F 94% 30.16 in 10.0 mi SSE 5.8 mph - N/A   Scattered Clouds
3:23 AM 78.8 °F - 75.2 °F 89% 30.15 in 10.0 mi ESE 4.6 mph - N/A   Scattered Clouds
3:28 AM 78.8 °F - 75.2 °F 89% 30.15 in 9.0 mi SE 3.5 mph - N/A   Scattered Clouds
3:33 AM 78.8 °F - 75.2 °F 89% 30.15 in 9.0 mi SSE 4.6 mph - N/A   Scattered Clouds
3:58 AM 78.4 °F - 75.7 °F 91% 30.15 in 10.0 mi SE 4.6 mph - N/A   Clear
4:58 AM 78.4 °F - 75.7 °F 91% 30.16 in 10.0 mi SE 2.3 mph - N/A   Partly Cloudy
5:13 AM 78.8 °F - 75.2 °F 89% 30.16 in 8.0 mi SSE 5.8 mph - N/A Rain Rain
5:18 AM 78.8 °F - 75.2 °F 89% 30.16 in 8.0 mi South 5.8 mph - N/A Rain Light Rain
5:23 AM 78.8 °F - 75.2 °F 89% 30.17 in 9.0 mi SSE 3.5 mph - N/A   Light Drizzle
5:30 AM 78.8 °F - 77.0 °F 94% 30.16 in 10.0 mi South 3.5 mph - N/A   Mostly Cloudy
5:45 AM 78.8 °F - 77.0 °F 94% 30.17 in 10.0 mi South 2.3 mph - N/A   Mostly Cloudy
5:50 AM 78.8 °F - 77.0 °F 94% 30.17 in 10.0 mi SE 2.3 mph - N/A   Light Drizzle
5:58 AM 78.4 °F - 76.3 °F 93% 30.17 in 10.0 mi ESE 2.3 mph - 0.01 in Rain Light Rain
6:08 AM 78.8 °F - 77.0 °F 94% 30.16 in 10.0 mi Calm Calm - N/A Rain Light Rain
6:12 AM 78.8 °F - 77.0 °F 94% 30.17 in 10.0 mi East 2.3 mph - N/A   Scattered Clouds
6:14 AM 78.8 °F - 77.0 °F 94% 30.17 in 10.0 mi ESE 2.3 mph - N/A   Light Drizzle
6:16 AM 78.8 °F - 77.0 °F 94% 30.17 in 10.0 mi ESE 3.5 mph - N/A   Scattered Clouds
6:22 AM 78.8 °F - 77.0 °F 94% 30.17 in 10.0 mi ESE 3.5 mph - N/A   Mostly Cloudy
6:27 AM 78.8 °F - 77.0 °F 94% 30.17 in 10.0 mi ESE 3.5 mph - N/A Rain Light Rain
6:32 AM 78.8 °F - 77.0 °F 94% 30.17 in 10.0 mi ESE 4.6 mph - N/A Rain Light Rain
6:36 AM 78.8 °F - 77.0 °F 94% 30.17 in 10.0 mi ESE 3.5 mph - N/A   Mostly Cloudy
6:58 AM 78.4 °F - 76.8 °F 95% 30.17 in 10.0 mi SE 3.5 mph - 0.00 in   Overcast
7:03 AM 78.8 °F - 77.0 °F 94% 30.17 in 10.0 mi ESE 4.6 mph - N/A Rain Light Rain
7:04 AM 78.8 °F - 77.0 °F 94% 30.17 in 10.0 mi ESE 4.6 mph - N/A   Mostly Cloudy
7:05 AM 78.8 °F - 77.0 °F 94% 30.17 in 10.0 mi ESE 3.5 mph - N/A Rain Light Rain
7:15 AM 78.8 °F - 77.0 °F 94% 30.17 in 10.0 mi ESE 2.3 mph - N/A   Light Drizzle
7:16 AM 78.8 °F - 77.0 °F 94% 30.17 in 10.0 mi SE 2.3 mph - N/A   Mostly Cloudy
7:41 AM 78.8 °F - 77.0 °F 94% 30.18 in 10.0 mi ESE 5.8 mph - N/A   Scattered Clouds
7:58 AM 80.1 °F 86.3 °F 77.7 °F 93% 30.18 in 10.0 mi ESE 6.9 mph - 0.00 in   Partly Cloudy
8:58 AM 83.3 °F 92.4 °F 76.8 °F 81% 30.20 in 10.0 mi SE 11.5 mph - N/A   Scattered Clouds
9:08 AM 82.4 °F 90.9 °F 77.0 °F 84% 30.19 in 10.0 mi SE 8.1 mph - N/A   Mostly Cloudy
9:18 AM 82.4 °F 89.5 °F 75.2 °F 79% 30.19 in 10.0 mi SE 11.5 mph - N/A   Mostly Cloudy
9:23 AM 82.4 °F 89.5 °F 75.2 °F 79% 30.19 in 10.0 mi SE 9.2 mph - N/A   Scattered Clouds
9:58 AM 83.5 °F 91.2 °F 75.4 °F 76% 30.20 in 10.0 mi SE 8.1 mph - N/A   Partly Cloudy
10:28 AM 84.2 °F 94.1 °F 77.0 °F 79% 30.19 in 10.0 mi ESE 11.5 mph - N/A   Mostly Cloudy
10:38 AM 86.0 °F 95.1 °F 75.2 °F 70% 30.19 in 10.0 mi SE 11.5 mph 18.4 mph N/A   Scattered Clouds
10:48 AM 84.2 °F 92.3 °F 75.2 °F 74% 30.19 in 10.0 mi SSE 12.7 mph - N/A   Mostly Cloudy
10:58 AM 84.9 °F 94.1 °F 75.7 °F 74% 30.20 in 10.0 mi ESE 10.4 mph - N/A   Mostly Cloudy
11:28 AM 86.0 °F 95.1 °F 75.2 °F 70% 30.19 in 10.0 mi SSE 13.8 mph - N/A   Scattered Clouds
11:58 AM 85.8 °F 93.4 °F 73.6 °F 67% 30.20 in 10.0 mi SE 12.7 mph - N/A   Scattered Clouds
12:58 PM 86.5 °F 95.0 °F 74.3 °F 67% 30.20 in 10.0 mi SE 12.7 mph - N/A   Scattered Clouds
1:08 PM 86.0 °F 95.1 °F 75.2 °F 70% 30.18 in 10.0 mi SSE 12.7 mph 18.4 mph N/A Thunderstorm Mostly Cloudy
1:13 PM 86.0 °F 95.1 °F 75.2 °F 70% 30.18 in 10.0 mi SSE 12.7 mph 18.4 mph N/A   Mostly Cloudy
1:18 PM 86.0 °F 93.4 °F 73.4 °F 66% 30.18 in 10.0 mi SSE 10.4 mph 18.4 mph N/A   Mostly Cloudy
1:52 PM 86.0 °F 93.4 °F 73.4 °F 66% 30.18 in 10.0 mi SSE 11.5 mph - N/A   Mostly Cloudy
1:55 PM 86.0 °F 95.1 °F 75.2 °F 70% 30.18 in 10.0 mi South 13.8 mph - N/A   Mostly Cloudy
2:28 PM 86.0 °F 95.1 °F 75.2 °F 70% 30.17 in 10.0 mi SE 11.5 mph 20.7 mph N/A   Mostly Cloudy
2:48 PM 84.2 °F 92.3 °F 75.2 °F 74% 30.16 in 10.0 mi SE 13.8 mph 24.2 mph N/A   Mostly Cloudy
2:53 PM 86.0 °F 95.1 °F 75.2 °F 70% 30.16 in 10.0 mi SE 13.8 mph 23.0 mph N/A   Mostly Cloudy
2:58 PM 85.5 °F 93.4 °F 74.3 °F 69% 30.17 in 10.0 mi SE 17.3 mph 23.0 mph N/A   Mostly Cloudy
3:03 PM 84.2 °F 92.3 °F 75.2 °F 74% 30.15 in 10.0 mi SE 15.0 mph 21.9 mph N/A   Mostly Cloudy
3:33 PM 86.0 °F 95.1 °F 75.2 °F 70% 30.15 in 10.0 mi SSE 15.0 mph 26.5 mph N/A   Mostly Cloudy
3:48 PM 84.2 °F 92.3 °F 75.2 °F 74% 30.14 in 10.0 mi SSE 17.3 mph 23.0 mph N/A   Mostly Cloudy
3:56 PM 86.0 °F 95.1 °F 75.2 °F 70% 30.14 in 10.0 mi SSE 16.1 mph 25.3 mph N/A Rain Light Rain
3:58 PM 86.0 °F 95.1 °F 75.2 °F 70% 30.15 in 10.0 mi SSE 15.0 mph 25.3 mph N/A Rain Light Rain
4:03 PM 84.2 °F 92.3 °F 75.2 °F 74% 30.14 in 10.0 mi SE 16.1 mph 25.3 mph N/A Rain Light Rain
4:54 PM 86.0 °F 95.1 °F 75.2 °F 70% 30.13 in 10.0 mi SE 13.8 mph 27.6 mph N/A   Mostly Cloudy
4:58 PM 86.2 °F 95.1 °F 74.8 °F 69% 30.14 in 10.0 mi SE 18.4 mph 27.6 mph 0.00 in   Mostly Cloudy
5:08 PM 86.0 °F 95.1 °F 75.2 °F 70% 30.13 in 10.0 mi SSE 16.1 mph 23.0 mph N/A   Scattered Clouds
5:38 PM 84.2 °F 92.3 °F 75.2 °F 74% 30.13 in 10.0 mi SE 17.3 mph 26.5 mph N/A   Mostly Cloudy
5:58 PM 83.7 °F 91.3 °F 74.8 °F 75% 30.14 in 10.0 mi SSE 16.1 mph 25.3 mph N/A   Mostly Cloudy
6:23 PM 82.4 °F 89.5 °F 75.2 °F 79% 30.14 in 10.0 mi SSE 12.7 mph 24.2 mph N/A   Mostly Cloudy
6:58 PM 82.6 °F 89.1 °F 74.5 °F 76% 30.16 in 10.0 mi SSE 9.2 mph 21.9 mph N/A   Scattered Clouds
7:03 PM 82.4 °F 89.5 °F 75.2 °F 79% 30.14 in 10.0 mi SSE 15.0 mph 18.4 mph N/A   Mostly Cloudy
7:08 PM 82.4 °F 88.2 °F 73.4 °F 74% 30.14 in 10.0 mi SSE 13.8 mph 18.4 mph N/A   Mostly Cloudy
7:58 PM 81.5 °F 86.7 °F 73.4 °F 76% 30.16 in 10.0 mi SSE 12.7 mph - N/A   Scattered Clouds
8:58 PM 81.0 °F 86.0 °F 73.6 °F 78% 30.17 in 10.0 mi SSE 8.1 mph - N/A   Scattered Clouds
9:43 PM 80.6 °F 85.4 °F 73.4 °F 79% 30.17 in 10.0 mi SE 4.6 mph - N/A   Mostly Cloudy
9:58 PM 80.2 °F 85.0 °F 74.3 °F 82% 30.18 in 10.0 mi SE 4.6 mph - N/A   Mostly Cloudy
10:23 PM 80.6 °F 85.4 °F 73.4 °F 79% 30.18 in 10.0 mi Variable 4.6 mph - N/A   Scattered Clouds
10:58 PM 79.7 °F - 74.1 °F 83% 30.19 in 10.0 mi SE 3.5 mph - N/A   Clear
11:28 PM 78.8 °F - 73.4 °F 83% 30.18 in 10.0 mi ESE 3.5 mph - N/A   Mostly Cloudy
11:38 PM 78.8 °F - 73.4 °F 83% 30.18 in 10.0 mi ESE 5.8 mph - N/A   Scattered Clouds
11:58 PM 79.3 °F - 74.1 °F 84% 30.19 in 10.0 mi ESE 5.8 mph - N/A   Scattered Clouds